Погода в Кикинде

Сербия     45°49′37″N   20°28′01″E
темп.,
°C
ветер,
м/с
пор.,
м/с
влажн.,
%
обл.,
%
осадки,
мм/ч
давл.,
гПа
погр.,
м
12 апреля, пн
пн1223:00+12ююв4135354 0.0 1021335
02:00+13ю6134917 0.0 1020413
05:00+10ююв3106488 0.0 1020200
08:00+12ююв596147 0.0 1020308
11:00+18ююв555069 0.0 1019654
14:00+21ююв454493 0.0 10171096
17:00+21ююв454414 0.0 10151455
20:00+15вюв336689 0.0 101532
13 апреля, вт
вт1323:00+13зюз2278100 0.4 101625
02:00+10ссз5993100 0.8 1017283
05:00+7сз5690100 0.4 1018315
08:00+6сз4590100 1.7 1018299
11:00+7з4485100 0.0 1018508
14:00+8з4581100 0.0 1018627
17:00+6з5691100 2.4 1017495
20:00+5з6993100 4.2 1018445
14 апреля, ср
ср1423:00+3зюз6996100 0.1 1018435
02:00+3сз4697100 0.4 1018555
05:00+3сз5897100 0.3 1019745
08:00+3сз5998100 0.4 1020537
11:00+4сз5794100 0.4 1020647
14:00+6ссз5677100 1.0 10201071
17:00+7с457199 0.4 10201086
20:00+4св4391100 0.8 1021636
15 апреля, чт
чт1523:00+3всв2597100 0.3 1022405
02:00+3зсз1294100 1.3 1021492
05:00+2зсз1198100 1.5 1021304
08:00+3зсз1296100 1.6 1022392
11:00+7з127247 0.3 1022864
14:00+8з245665 0.5 10211125
17:00+10сз465481 0.1 10191503
20:00+6зсз387462 0.4 1019149
16 апреля, пт
пт1623:00+4зсз36815 0.0 102096
02:00+2зсз37800 0.0 1020131
05:00+1з49850 0.0 1020192
08:00+4зсз57755 0.0 1020423
11:00+9зсз57547 0.0 10201475
14:00+10зсз5647100 0.1 10201762
17:00+11сз564792 0.0 10191697
20:00+6сз23705 0.1 102021